User: anonymous
Location: Waldport
(44.4270°N, 124.0680°W)
Time: 12:25:20
(UTC-07:00)
Language:

Cosmos 1023 Rocket - Orbit

View from above orbital plane
View from above orbital plane
View from above satellite
View from above satellite

Ground track
Ground track

The orbit data is extracted from the following two-line orbital elements,

1 10962U 78063B   14106.44797043  .00000203  00000-0  71673-4 0  7173
2 10962 074.0813 195.5723 0025064 033.8461 041.7945 14.40628288879138
Epoch (UTC): 16 April 2014 10:45:04
Eccentricity: 0.0025064
inclination: 74.0813°
perigee height: 738 km
apogee height: 774 km
right ascension of ascending node: 195.5723°
argument of perigee: 33.8461°
revolutions per day: 14.40628288
mean anomaly at epoch: 41.7945°
orbit number at epoch: 87913

The dashed part of the orbit path shows where the satellite is in the earth's shadow,  

DLR